www.pogodaiklimat.ru

Погода и климат >> Архив погоды >> Россия >> Якутия >> Юрты


ПОГОДА в Юртах

  • Прогноз погоды в Юртах
  • Монитор погоды в Юртах
  • Климат города

АРХИВ ПОГОДЫ в Юртах

Время (UTC), дата Ветер
(напр.,м/с)
 
Видим.   Явления Облачность Т
(С)
Тd
(С)
f
(%)
Тe
(С)
Тes
(С)
Комфортность P
(гПа)
Po
(гПа)
Тmin
(С)
Tmax
(С)
R
(мм)
R24
(мм)
S
(см)
18 19.06 штиль 0 50 км {ливн. осадки} 10/8 600 м
[Cb cap Cs]
+8.8 +8.2 96 +8 +8 1006.0 937.3
21 19.06 штиль 0 50 км 9/9 600 м
[Cb cap]
+14.1 +11.9 87 +14 +14 1003.8 936.6 +8.8 0.7
00 20.06 ЮЗ 1 50 км гроза без осадков 10/10 600 м
[Cb cap]
+21.0 +5.6 37 +23 +23 комфорт 1000.9 935.8
03 20.06 Ю 1 50 км {гроза} 10/8 600 м
[Cb cap Cs]
+18.9 +7.8 48 +21 +23 комфорт 1000.6 934.6
06 20.06 Ю 1 50 км {гроза} 9/9 600 м
[Cb cap]
+16.2 +6.1 51 +17 +18 999.7 933.0
09 20.06 штиль 0 50 км {ливн. осадки} 9/9 600 м
[Cb cap]
+12.5 +7.8 73 +12 +12 1001.9 934.4 +21.0 0.2
12 20.06 ЮВ 1 50 км {ливн. осадки} 9/8 600 м
[Cb cap Ci fib]
+12.5 +7.6 72 +13 +13 1000.8 933.4
15 20.06 штиль 0 50 км 9/9 600 м
[Cb cap]
+8.4 +7.8 96 +7 +7 1001.5 933.0
18 20.06 штиль 0 50 км 10/4 1000 м
[Sc Cs]
+7.1 +6.4 95 +6 +6 1000.5 931.8
21 20.06 штиль 0 50 км 10/3 1000 м
[Sc Cs]
+9.1 +8.5 96 +8 +11 1000.2 932.0 +7.1 0.1
00 21.06 Ю 1 50 км 8/8 1000 м
[Cb cap]
+13.9 +5.7 58 +14 +17 999.0 932.9
03 21.06 З 1 50 км 8/5
[Sc Ci fib]
+15.5 +5.5 51 +16 +23 1000.2 933.5
06 21.06 50 км н/о +17.0 +3.4 40 +18 +21 1000.0 934.5
09 21.06 СЗ 1 50 км 4/4 1000 м
[Sc]
+17.0 +2.5 38 +18 +20 1001.2 934.6 +17.0
12 21.06 СЗ 1 50 км 3/3 1000 м
[Sc]
+14.5 +3.8 49 +15 +15 1003.0 935.7
15 21.06 штиль 0 50 км 4/0
[Cs]
+3.0 +1.7 91 +2 +2 1007.5 937.3
18 21.06 штиль 0 50 км ясно -1.1 -1.1 100 -3 -2 1009.4 937.9
21 21.06 штиль 0 50 км 8/0
[Ci fib]
+7.5 +3.0 73 +7 +11 1006.9 937.7 -1.1
00 22.06 штиль 0 50 км 8/0
[Ci fib]
+14.0 +3.7 50 +14 +25 опасность
простуды
1004.1 936.6
03 22.06 штиль 0 50 км 9/3 1000 м
[Sc Cs]
+18.3 +4.5 40 +18 +28 1002.4 936.1
06 22.06 штиль 0 50 км 4/3 1000 м
[Sc Ci fib]
+19.9 +5.3 38 +20 +28 1001.1 935.3
09 22.06 штиль 0 50 км 3/1 1000 м
[Sc]
+20.5 +7.3 42 +21 +24 комфорт 1000.9 935.1 +20.5
12 22.06 штиль 0 50 км ясно +16.0 +5.9 51 +16 +16 1003.3 936.4
15 22.06 штиль 0 50 км ясно +3.8 +2.3 90 +3 +3 1007.2 937.1
18 22.06 штиль 0 50 км ясно +1.0 -0.4 90 -0 0 1009.5 938.5
21 22.06 штиль 0 50 км ясно +8.0 +3.4 73 +8 +13 1008.4 939.0 +1.0
00 23.06 Ю 4 50 км ясно +16.0 +6.4 53 +15 +22 1005.8 938.7
03 23.06 Ю 2 50 км 9/0
[Cs]
+22.2 +1.6 26 +22 +32 комфорт 1002.9 937.3
06 23.06 Ю 1 50 км 10/0
[Cs]
+22.9 +6.8 35 +24 +31 комфорт 1001.1 935.8
09 23.06 Ю 1 50 км 9/0
[As trans]
+23.5 +7.5 36 +24 +25 комфорт 1000.4 935.3 +23.5
12 23.06 штиль 0 50 км {дождь} 10/0
[As op]
+18.3 +10.7 61 +19 +19 1001.9 935.7
15 23.06 штиль 0 50 км 10/0
[Ac As]
+13.5 +10.8 84 +13 +13 1003.7 936.3
18 23.06 Ю 2 50 км 4/0
[Ac As]
+11.1 +8.0 81 +10 +10 1003.3 935.4
21 23.06 Ю 2 50 км 10/0
[Cs]
+13.0 +11.3 89 +12 +15 1002.9 935.4 +11.1 0.0
00 24.06 Ю 2 50 км 10/0
[Cs]
+18.3 +7.2 48 +19 +27 1001.4 935.1
03 24.06 Ю 2 50 км 10/0
[As op]
+19.2 +9.4 53 +21 +23 комфорт 1001.9 935.8
06 24.06 штиль 0 50 км {дождь} 10/0
[As op]
+16.0 +12.8 81 +16 +18 1002.8 936.1
09 24.06 Ю 1 50 км 9/0
[As trans]
+14.4 +12.0 85 +15 +16 1003.9 936.7 +19.2 0.0
12 24.06 Ю 2 50 км 10/0
[Ac As]
+14.5 +12.5 88 +14 +14 1004.5 937.4
15 24.06 штиль 0 50 км 10/0
[Ac As]
+13.0 +9.5 79 +13 +13 1005.9 938.2
18 24.06 штиль 0 50 км 10/0
[Ac As]
+12.1 +11.1 94 +11 +12 1007.0 939.0
21 24.06 штиль 0 50 км {дождь} 10/0
[Ac As]
+9.0 +8.2 95 +8 +10 1009.1 940.3 +9.0 0.1
00 25.06 Ю 1 50 км {дождь} 10/0
[Ac As]
+10.5 +6.2 75 +10 +14 1010.2 941.5
03 25.06 С 1 50 км 9/9 1000 м
[Sc]
+14.8 +6.3 57 +15 +17 1009.1 941.5
06 25.06 С 1 50 км 6/6 1000 м
[Sc]
+17.1 +7.4 53 +18 +22 1008.5 941.5
09 25.06 СЗ 1 50 км 4/3 1000 м
[Sc Ci fib]
+19.0 +5.0 40 +20 +22 1008.1 941.5 +19.0
12 25.06 штиль 0 50 км 3/3 1000 м
[Sc]
+16.0 +4.8 47 +16 +16 1010.1 942.7
15 25.06 ЮЗ 1 50 км 3/0
[Cs]
+7.1 +5.2 88 +6 +6 1013.7 944.0
18 25.06 ЮЗ 1 50 км ясно +7.1 +4.7 85 +6 +6 1014.3 944.5
21 25.06 Ю 1 50 км 3/0
[Ci fib]
+12.0 +5.1 63 +12 +16 1013.3 944.8 +7.1
00 26.06 Ю 1 50 км 3/0
[Ci fib]
+14.9 +6.0 55 +16 +27 1012.3 944.5
03 26.06 Ю 1 50 км 1/0
[Ci fib]
+18.5 +4.3 39 +20 +34 опасность
простуды
1009.6 942.8
06 26.06 Ю 1 50 км 4/0
[Cs]
+22.0 +5.7 35 +23 +31 комфорт 1006.7 940.8
09 26.06 Ю 1 50 км 6/0
[Cs]
+22.0 +4.2 31 +22 +24 комфорт 1005.7 939.9 +22.6
12 26.06 Ю 1 50 км 3/0
[Cs]
+20.2 +0.3 26 +21 +21 комфорт 1005.2 939.0
15 26.06 Ю 1 50 км 3/0
[Cs]
+15.5 +1.7 39 +16 +16 1006.6 939.3

 

Местоположение метеостанции Юрты (Якутия, Россия): широта 64.05 долгота 141.80 высота над уровнем моря 590 м.

В архиве по умолчанию представлена погода в Юртах за последнюю неделю. Архивные данные за месяц целиком и за предыдущие месяцы, начиная с января 2011 года, Вы можете получить, выбрав интересующий диапазон дат из раскрывающегося списка и нажав кнопку "Ввод!".

Внимание! Время в таблицах - всемирное. Для получения местного времени необходимо прибавить поправку, которая в Юртах равна 10 ч.

Смотрите также архив погоды в соседних городах и на ближайших метеорологических станциях:

Погода в Агаякане (Якутия, Россия) (80 км)
Погода в Усть-Нере (Якутия, Россия) (82 км)
Погода в Оймяконе (Якутия, Россия) (110 км)
Погода в Восточной (Якутия, Россия) (142 км)
Погода в Делянкире (Якутия, Россия) (187 км)
Погода в Усть-Моме (Якутия, Россия) (275 км)
Погода в Теплом Ключе (Якутия, Россия) (286 км)
Погода в Томпо (Якутия, Россия) (293 км)
Погода в Иэме (Якутия, Россия) (317 км)
Погода в Сусумане (Магаданская область, Россия) (344 км)

Пояснения к столбцам:

Ветер - указаны скорость ветра в м/с - средняя за 10 мин, порывы в срок и между сроками (в фигурных скобках) и направление, откуда дует ветер: С - северный, СВ - северо-восточный, В - восточный, ЮВ - юго-восточный, Ю - южный, ЮЗ - юго-западный, З - западный, СЗ - северо-западный.
Видимость - горизонтальная дальность видимости в метрах или километрах. При видимости от 1 до 10 км при отсутствии осадков обычно наблюдается дымка, при ухудшении видимости до 1 км и менее - туман. В сухую погоду видимость может ухудшаться дымом, пылью или мглою.
Явления - указаны атмосферные явления, наблюдавшиеся в срок или в последний час перед сроком; фигурными скобками обозначены явления, наблюдавшиеся между сроками (за 1-3 часа до срока); квадратными скобками обозначены град или гололедные отложения с указанием их диаметра в мм.
Облачность - указаны через наклонную черту общая и нижняя облачность в баллах и высота нижней границы облаков в метрах; квадратными скобками обозначены формы облаков: Ci - перистые, Cs - перисто-слоистые, Cc - перисто-кучевые, Ac - высококучевые, As - высокослоистые, Sc - слоисто-кучевые, Ns - слоисто-дождевые, Cu - кучевые, Cb - кучево-дождевые. Подробнее классификацию облаков см. в Атласе облаков (PDF).
T - Температура воздуха - температура, измеренная на высоте 2 м над землей.
Td - Температура точки росы - температура, при понижении до которой содержащийся в воздухе водяной пар достигнет насыщения.
f - Относительная влажность воздуха - влажноcть воздуха, измеренная на высоте 2 м над землей.
Te - Эффективная температура - температура, которую ощущает одетый по сезону человек в тени. Характеристика душности погоды. При расчете учитывается влияние влажности воздуха и скорости ветра на теплоощущения человека.
Tes - Эффективная температура на солнце - температура, которую ощущает человек, с поправкой на солнечный нагрев. Характеристика знойности погоды. Зависит от высоты солнца над горизонтом, облачности и скорости ветра. Ночью, в пасмурную погоду, а также при ветре 12 м/с и более поправка равна нулю.
P - Атмосферное давление - приведенное к уровню моря атмосферное давление.
Po - Атмосферное давление - измеренное на уровне метеостанции атмосферное давление.
Tmin - Минимальная температура - минимум температуры воздуха на высоте 2 м над землей.
Tmax - Максимальная температура - максимум температуры воздуха на высоте 2 м над землей.
R - Количество осадков - Количество выпавших осадков за период времени, мм. При наведении курсора мыши на число - период времени, за который выпало указанное количество осадков.
R24 - Количество осадков - Количество выпавших осадков за 24 часа, мм.
S - Снежный покров - Высота снежного покрова, см. При наведении курсора мыши на число - состояние снежного покрова и степень покрытия местности в баллах.